Location: Kergonan
(48.2337°N, 4.5518°W)
Time: 13:15:07
(UTC+00:00)

Envisat - Pass Details

Date: 18 January 2020
Orbit: 764 x 766 km, 98.1° (Epoch: 27 February)

Event Time Altitude Azimuth Distance (km) Brightness Sun altitude
Rises 07:09:53 0° 14° (NNE) 3,246 6.2 -8.7°
Reaches altitude 10° 07:12:12 10° 14° (NNE) 2,315 5.4 -8.3°
Maximum altitude 07:17:19 87° 103° (ESE) 774 3.1 -7.5°
Drops below altitude 10° 07:22:24 10° 194° (SSW) 2,297 5.6 -6.7°
Sets 07:24:41 0° 195° (SSW) 3,218 6.4 -6.4°
